Weather History for LKPR - October, 2012

Change the Weather History Date:

Monday, October 29, 2012

  Actual Average Record
Temperature  
Mean Temperature 28 °F -  
Max Temperature 33 °F 43 °F 62 °F (2006)
Min Temperature 24 °F 32 °F 19 °F (1997)
Degree Days  
Heating Degree Days 36    
Moisture  
Dew Point 27 °F    
Average Humidity 92    
Maximum Humidity 100    
Minimum Humidity 81    
Precipitation  
Precipitation 0.00 in 0.04 in - ()
Sea Level Pressure  
Sea Level Pressure 29.96 in    
Wind  
Wind Speed 6 mph ()    
Max Wind Speed 12 mph    
Max Gust Speed -    
Visibility 5.4 miles    
Events      
Averages and records for this station are not official NWS values.
T = Trace of Precipitation, MM = Missing Value Source: Averaged Metar Reports

Daily Weather History Graph

Daily Weather History Graph

Search for Another Location

Airport or City:

Trip Planner

Search our weather history database for the weather conditions in past years. The results will help you decide how hot, cold, wet, or windy it might be!

Date:

Astronomy

Oct. 29, 2012 Rise Set
Actual Time 6:48 AM CET 4:44 PM CET
Civil Twilight 6:14 AM CET 5:17 PM CET
Nautical Twilight 5:36 AM CET 5:56 PM CET
Astronomical Twilight 4:58 AM CET 6:33 PM CET
Moon 4:22 PM CET (10/29) 6:23 AM CET (10/29)
Length of Visible Light 11h 03m
Length of Day
9h 55m
Full, 100% of the Moon is Illuminated
Oct 29
Full
Oct 29
Full
Nov 7
Last Quarter
Nov 13
New
Nov 20
First Quarter

Hourly Weather History & Observations

Time (CET) Temp. Windchill Dew Point Humidity Pressure Visibility Wind Dir Wind Speed Gust Speed Precip Events Conditions
12:00 AM 26.6 °F 19.1 °F 24.8 °F 93% 29.98 in 5.0 mi NNW 6.9 mph - N/A   Partly Cloudy
12:30 AM 26.6 °F 19.1 °F 26.6 °F 100% 30.01 in 5.0 mi NW 6.9 mph - N/A   Partly Cloudy
1:00 AM 27 °F - 26 °F 94% 30.07 in 4 mi NNW 4.5 mph - -   Mist
1:00 AM 26.6 °F 21.2 °F 26.6 °F 100% 29.98 in 4.3 mi NNW 4.6 mph - N/A   Unknown
1:30 AM 26.6 °F 22.6 °F 26.6 °F 100% 29.98 in 5.0 mi NW 3.5 mph - N/A   Unknown
2:00 AM 26.6 °F 20.0 °F 26.6 °F 100% 29.98 in 5.0 mi NNW 5.8 mph - N/A   Partly Cloudy
2:30 AM 26.6 °F 21.2 °F 26.6 °F 100% 29.98 in 5.0 mi NNW 4.6 mph - N/A   Partly Cloudy
3:00 AM 26.6 °F 20.0 °F 26.6 °F 100% 30.01 in 5.0 mi NW 5.8 mph - N/A   Mostly Cloudy
3:30 AM 26.6 °F 20.0 °F 26.6 °F 100% 29.98 in 5.0 mi NW 5.8 mph - N/A   Scattered Clouds
4:00 AM 26.6 °F 21.2 °F 24.8 °F 93% 29.98 in 5.0 mi WNW 4.6 mph - N/A   Scattered Clouds
4:30 AM 28.4 °F 22.2 °F 26.6 °F 93% 29.98 in 5.0 mi WNW 5.8 mph - N/A   Scattered Clouds
5:00 AM 26.6 °F 20.0 °F 26.6 °F 100% 29.98 in 5.0 mi NW 5.8 mph - N/A   Mostly Cloudy
5:30 AM 26.6 °F 20.0 °F 24.8 °F 93% 29.98 in 5.0 mi WNW 5.8 mph - N/A   Mostly Cloudy
6:00 AM 26.6 °F 21.2 °F 26.6 °F 100% 29.98 in 5.0 mi WNW 4.6 mph - N/A   Mostly Cloudy
6:30 AM 28.4 °F 23.3 °F 26.6 °F 93% 29.98 in 5.0 mi NW 4.6 mph - N/A   Mostly Cloudy
7:00 AM 28 °F - 27 °F 92% 30.06 in 5 mi NW 4.5 mph - -   Mist
7:00 AM 28.4 °F 23.3 °F 26.6 °F 93% 29.98 in 5.0 mi WNW 4.6 mph - N/A   Mostly Cloudy
7:30 AM 28.4 °F 24.6 °F 26.6 °F 93% 29.98 in 4.3 mi West 3.5 mph - N/A   Partly Cloudy
8:00 AM 28.4 °F 22.2 °F 26.6 °F 93% 30.01 in 6.2 mi West 5.8 mph - N/A   Partly Cloudy
8:30 AM 28.4 °F 23.3 °F 28.4 °F 100% 30.01 in - West 4.6 mph - N/A   Clear
9:00 AM 30.2 °F 26.7 °F 28.4 °F 93% 29.98 in - WSW 3.5 mph - N/A   Clear
9:30 AM 30.2 °F 25.4 °F 28.4 °F 93% 29.98 in 5.0 mi WSW 4.6 mph - N/A   Unknown
10:00 AM 30.2 °F 24.3 °F 28.4 °F 93% 29.98 in 5.0 mi WSW 5.8 mph - N/A   Partly Cloudy
10:30 AM 30.2 °F 24.3 °F 28.4 °F 93% 29.98 in 5.0 mi WSW 5.8 mph - N/A   Scattered Clouds
11:00 AM 32.0 °F 27.5 °F 28.4 °F 87% 29.98 in 5.6 mi WSW 4.6 mph - N/A   Partly Cloudy
11:30 AM 32.0 °F 27.5 °F 30.2 °F 93% 29.98 in 6.2 mi WSW 4.6 mph - N/A   Mostly Cloudy
12:00 PM 32.0 °F 27.5 °F 28.4 °F 87% 29.98 in 6.2 mi WSW 4.6 mph - N/A   Mostly Cloudy
12:30 PM 33.8 °F 28.6 °F 28.4 °F 81% 29.98 in 6.2 mi WSW 5.8 mph - N/A   Mostly Cloudy
1:00 PM 33 °F - 30 °F 82% 30.03 in 9 mi WSW 6.7 mph - -   Scattered Clouds
1:00 PM 33.8 °F 27.0 °F 30.2 °F 87% 29.98 in 6.2 mi WSW 8.1 mph - N/A   Partly Cloudy
1:30 PM 33.8 °F 27.0 °F 30.2 °F 87% 29.95 in 6.2 mi WSW 8.1 mph - N/A   Partly Cloudy
2:00 PM 33.8 °F 27.0 °F 30.2 °F 87% 29.95 in 6.2 mi WSW 8.1 mph - N/A   Partly Cloudy
2:30 PM 33.8 °F 26.4 °F 30.2 °F 87% 29.95 in - WSW 9.2 mph - N/A   Clear
3:00 PM 33.8 °F 28.6 °F 30.2 °F 87% 29.95 in - WSW 5.8 mph - N/A   Clear
3:30 PM 33.8 °F 28.6 °F 30.2 °F 87% 29.92 in - WSW 5.8 mph - N/A   Clear
4:00 PM 33.8 °F 27.0 °F 30.2 °F 87% 29.92 in - WSW 8.1 mph - N/A   Clear
4:30 PM 32.0 °F 26.4 °F 30.2 °F 93% 29.92 in - SW 5.8 mph - N/A   Clear
5:00 PM 32.0 °F 25.6 °F 28.4 °F 87% 29.92 in - SSW 6.9 mph - N/A   Clear
5:30 PM 30.2 °F 22.6 °F 28.4 °F 93% 29.92 in - SSW 8.1 mph - N/A   Clear
6:00 PM 30.2 °F 22.6 °F 28.4 °F 93% 29.92 in - SSW 8.1 mph - N/A   Clear
6:30 PM 30.2 °F 21.9 °F 28.4 °F 93% 29.92 in 5.6 mi SSW 9.2 mph - N/A   Unknown
7:00 PM 29 °F - 27 °F 89% 29.98 in 6 mi SW 8.9 mph - -   Mist
7:00 PM 30.2 °F 21.3 °F 26.6 °F 86% 29.89 in 5.6 mi SSW 10.4 mph - N/A   Unknown
7:30 PM 30.2 °F 21.3 °F 28.4 °F 93% 29.89 in 5.6 mi SW 10.4 mph - N/A   Unknown
8:00 PM 30.2 °F 20.8 °F 26.6 °F 86% 29.89 in - SW 11.5 mph - N/A   Clear
8:30 PM 28.4 °F 18.5 °F 26.6 °F 93% 29.89 in - SW 11.5 mph - N/A   Clear
9:00 PM 28.4 °F 18.5 °F 24.8 °F 86% 29.89 in - SSW 11.5 mph - N/A   Clear
9:30 PM 26.6 °F 18.2 °F 24.8 °F 93% 29.89 in - SSW 8.1 mph - N/A   Clear
10:00 PM 26.6 °F 17.5 °F 23.0 °F 86% 29.89 in - SSW 9.2 mph - N/A   Clear
10:30 PM 24.8 °F 16.9 °F 23.0 °F 93% 29.86 in - SSW 6.9 mph - N/A   Clear
11:00 PM 24.8 °F 16.9 °F 23.0 °F 93% 29.86 in - South 6.9 mph - N/A   Clear
11:30 PM 24.8 °F 16.1 °F 23.0 °F 93% 29.86 in - South 8.1 mph - N/A   Clear